Starlink 35584

operational
NORAD ID: 66105 Int'l Des: 2025-236 Owner: SPXS Country: US Constellation: starlink
NOTLE

Starlink 35584について

説明を読み込み中...

リアルタイム位置

3D地球を読み込み中...

次回通過

高度履歴

Altitude vs Time

uPlot chart will show altitude changes over time

軌道要素

1 66105C 25236W 25293.06437500 .00558700 00000+0 84984-3 0 2939
2 66105 53.1606 48.3488 0008650 260.5653 255.7337 16.03113952 16
Epoch: Oct 20, 2025 • Age: 19 hours

現在のステータス

高度 272.7 km
速度 7.75 km/s
衛星直下点 42.69°N, 132.2°E
打ち上げ日 Oct 19, 2025
運用期間 1 days
タイプ internet

技術仕様

分類 Payload
質量 575.00 kg
乾燥質量 530.00 kg
総質量 575.00 kg
長さ 0.30 m
直径 4.10 m
スパン 29.00 m
形状 Box + pan
製造者 SPXS
バスタイプ Starlink V2MO
フェーズステータス In Orbit
所有者/国 SPXS/US

大規模コンステレーション

Loading constellations...